RYR2318 EDJA-LIBP

Flight info

Callsign RYR2318
Flight time 0h 53m
Altitude 37000
Route KPT4A KPT Z999 BEMKI L607 ELMEM N606 GIRIS DCT TISAX DCT NAXAV DCT GIKEB DCT CHI DCT ARDAM DCT MASEG/N0340F190 L612 LAPVO Y579 INKIM
Aircraft B738/M-SDE3FGILRWY/SB1

Departure

Time 2026-04-24 12:46
Airport Memmingen Allgau Airport (EDJA)

Arrival

Time 2026-04-24 13:39
Airport Abruzzo Airport (LIBP)
Time Latitude Longitude Altitude Speed Heading
2026-04-24 12:27 47.98896 10.23347 2067 ft 0 kts 25°
2026-04-24 12:38 47.98889 10.23342 2067 ft 2 kts 25°
2026-04-24 12:38 47.98874 10.23331 2067 ft 2 kts 25°
2026-04-24 12:39 47.98833 10.23290 2068 ft 2 kts 56°
2026-04-24 12:39 47.98826 10.23272 2068 ft 0 kts 68°
2026-04-24 12:39 47.98824 10.23264 2068 ft 0 kts 70°
2026-04-24 12:42 47.98825 10.23268 2068 ft 2 kts 70°
2026-04-24 12:42 47.98839 10.23324 2068 ft 8 kts 69°
2026-04-24 12:42 47.98872 10.23460 2065 ft 15 kts 70°
2026-04-24 12:42 47.98911 10.23637 2063 ft 16 kts 81°
2026-04-24 12:43 47.98857 10.23753 2063 ft 11 kts 146°
2026-04-24 12:43 47.98849 10.23870 2061 ft 12 kts 58°
2026-04-24 12:43 47.98921 10.24049 2060 ft 22 kts 59°
2026-04-24 12:43 47.99014 10.24280 2058 ft 22 kts 59°
2026-04-24 12:44 47.99106 10.24513 2056 ft 24 kts 59°
2026-04-24 12:44 47.99229 10.24822 2052 ft 34 kts 59°
2026-04-24 12:44 47.99366 10.25169 2049 ft 34 kts 60°
2026-04-24 12:44 47.99460 10.25376 2049 ft 6 kts 102°
2026-04-24 12:45 47.99434 10.25341 2049 ft 9 kts 234°
2026-04-24 12:45 47.99300 10.25003 2052 ft 76 kts 239°
2026-04-24 12:45 47.98886 10.23963 2061 ft 149 kts 239°
2026-04-24 12:45 47.98270 10.22389 2382 ft 182 kts 242°
2026-04-24 12:46 47.97646 10.20724 3327 ft 180 kts 243°
2026-04-24 12:46 47.96982 10.18993 4186 ft 178 kts 242°
2026-04-24 12:46 47.96293 10.17289 4853 ft 182 kts 240°
2026-04-24 12:46 47.95579 10.15547 5505 ft 187 kts 240°
2026-04-24 12:47 47.94818 10.13681 5999 ft 203 kts 240°
2026-04-24 12:47 47.93989 10.11649 6585 ft 217 kts 239°
2026-04-24 12:47 47.92828 10.09708 7129 ft 237 kts 216°
2026-04-24 12:47 47.91064 10.08648 7813 ft 251 kts 187°
2026-04-24 12:48 47.89055 10.08873 8582 ft 259 kts 167°
2026-04-24 12:48 47.87050 10.09589 9399 ft 265 kts 165°
2026-04-24 12:48 47.85063 10.10715 9990 ft 279 kts 148°
2026-04-24 12:48 47.83437 10.12941 10571 ft 291 kts 122°
2026-04-24 12:49 47.82207 10.15970 11141 ft 307 kts 117°
2026-04-24 12:49 47.80993 10.19130 11716 ft 322 kts 118°
2026-04-24 12:49 47.79702 10.22397 12242 ft 338 kts 118°
2026-04-24 12:49 47.78310 10.25794 12760 ft 354 kts 121°
2026-04-24 12:50 47.76565 10.29009 13230 ft 373 kts 135°
2026-04-24 12:50 47.74163 10.31498 13662 ft 391 kts 153°
2026-04-24 12:50 47.71204 10.32568 14321 ft 400 kts 176°
2026-04-24 12:50 47.68090 10.32873 15129 ft 403 kts 169°
2026-04-24 12:51 47.65072 10.34215 15934 ft 406 kts 156°
2026-04-24 12:51 47.62167 10.36002 16528 ft 414 kts 156°
2026-04-24 12:51 47.59100 10.37745 17238 ft 421 kts 158°
2026-04-24 12:51 47.56046 10.39378 17999 ft 425 kts 158°
2026-04-24 12:52 47.52873 10.41050 18715 ft 430 kts 158°
2026-04-24 12:52 47.49665 10.42752 19451 ft 435 kts 158°
2026-04-24 12:52 47.46391 10.44508 20181 ft 439 kts 158°
2026-04-24 12:52 47.43027 10.46331 20922 ft 443 kts 157°
2026-04-24 12:53 47.39694 10.48237 21569 ft 447 kts 154°
2026-04-24 12:53 47.36346 10.50556 22293 ft 450 kts 150°
2026-04-24 12:53 47.33134 10.53055 22936 ft 454 kts 148°
2026-04-24 12:53 47.29872 10.55707 23588 ft 458 kts 148°
2026-04-24 12:54 47.26680 10.58326 24200 ft 462 kts 148°
2026-04-24 12:54 47.23461 10.60952 24852 ft 465 kts 148°
2026-04-24 12:54 47.20162 10.63617 25476 ft 468 kts 148°
2026-04-24 12:54 47.16897 10.66176 26055 ft 473 kts 151°
2026-04-24 12:55 47.13386 10.68500 26635 ft 478 kts 155°
2026-04-24 12:55 47.09788 10.70559 27343 ft 478 kts 157°
2026-04-24 12:55 47.06160 10.72490 28258 ft 473 kts 158°
2026-04-24 12:55 47.02593 10.74348 29040 ft 470 kts 158°
2026-04-24 12:56 46.99024 10.76230 29784 ft 468 kts 157°
2026-04-24 12:56 46.95489 10.78148 30487 ft 465 kts 157°
2026-04-24 12:56 46.91982 10.80085 31112 ft 463 kts 156°
2026-04-24 12:56 46.88590 10.81978 31670 ft 462 kts 156°
2026-04-24 12:57 46.85153 10.83905 32243 ft 461 kts 156°
2026-04-24 12:57 46.81715 10.85856 32774 ft 459 kts 155°
2026-04-24 12:57 46.78500 10.88067 33277 ft 455 kts 148°
2026-04-24 12:57 46.75498 10.90791 33748 ft 452 kts 142°
2026-04-24 12:58 46.72734 10.94016 34188 ft 449 kts 135°
2026-04-24 12:58 46.70181 10.97542 34657 ft 447 kts 132°
2026-04-24 12:58 46.67784 11.01100 35159 ft 445 kts 131°
2026-04-24 12:58 46.65395 11.04710 35665 ft 444 kts 131°
2026-04-24 12:59 46.63005 11.08300 36072 ft 444 kts 131°
2026-04-24 12:59 46.60605 11.11854 36408 ft 445 kts 131°
2026-04-24 12:59 46.58190 11.15376 36747 ft 445 kts 132°
2026-04-24 12:59 46.55825 11.18784 37073 ft 444 kts 132°
2026-04-24 13:00 46.53414 11.22232 37138 ft 448 kts 132°
2026-04-24 13:00 46.48582 11.29081 37089 ft 442 kts 133°
2026-04-24 13:01 46.43480 11.35619 37113 ft 445 kts 139°
2026-04-24 13:01 46.37890 11.41581 37139 ft 446 kts 141°
2026-04-24 13:02 46.32259 11.47399 37156 ft 447 kts 141°
2026-04-24 13:02 46.26551 11.53343 37158 ft 446 kts 140°
2026-04-24 13:03 46.20848 11.59292 37158 ft 447 kts 141°
2026-04-24 13:03 46.14753 11.64426 37146 ft 451 kts 151°
2026-04-24 13:04 46.08152 11.68506 37137 ft 453 kts 155°
2026-04-24 13:04 46.01417 11.72420 37097 ft 454 kts 155°
2026-04-24 13:05 45.94861 11.76269 37091 ft 453 kts 154°
2026-04-24 13:05 45.88273 11.80181 37086 ft 453 kts 154°
2026-04-24 13:06 45.81525 11.84209 37075 ft 453 kts 154°
2026-04-24 13:06 45.74991 11.88111 37054 ft 453 kts 154°
2026-04-24 13:07 45.68461 11.92005 37063 ft 453 kts 154°
2026-04-24 13:07 45.61982 11.95860 37067 ft 453 kts 154°
2026-04-24 13:08 45.55447 11.99738 37065 ft 453 kts 153°
2026-04-24 13:08 45.49038 12.03532 37065 ft 452 kts 153°
2026-04-24 13:09 45.43012 12.07091 37064 ft 453 kts 153°
2026-04-24 13:09 45.37705 12.10218 37064 ft 453 kts 153°
2026-04-24 13:10 45.31162 12.14063 37064 ft 453 kts 153°
2026-04-24 13:10 45.24666 12.17873 37058 ft 453 kts 153°
2026-04-24 13:11 45.18167 12.21674 37062 ft 453 kts 153°
2026-04-24 13:11 45.11664 12.25469 37060 ft 453 kts 153°
2026-04-24 13:12 45.05188 12.29482 37068 ft 450 kts 148°
2026-04-24 13:12 44.99108 12.34345 37060 ft 447 kts 144°
2026-04-24 13:13 44.93107 12.39455 37059 ft 446 kts 144°
2026-04-24 13:13 44.87005 12.44581 37059 ft 447 kts 144°
2026-04-24 13:14 44.80681 12.49802 37065 ft 448 kts 144°
2026-04-24 13:14 44.74596 12.55077 37070 ft 446 kts 141°
2026-04-24 13:15 44.68612 12.60676 37066 ft 445 kts 141°
2026-04-24 13:15 44.62649 12.66254 37065 ft 446 kts 142°
2026-04-24 13:16 44.56457 12.71975 37066 ft 447 kts 142°
2026-04-24 13:16 44.50390 12.77531 37073 ft 446 kts 142°
2026-04-24 13:17 44.44358 12.83034 37082 ft 446 kts 142°
2026-04-24 13:17 44.38321 12.88522 37090 ft 447 kts 142°
2026-04-24 13:18 44.32303 12.93979 37084 ft 446 kts 142°
2026-04-24 13:18 44.26277 12.99428 37075 ft 447 kts 142°
2026-04-24 13:19 44.20247 13.04870 37072 ft 447 kts 142°
2026-04-24 13:19 44.14265 13.10256 37070 ft 447 kts 142°
2026-04-24 13:20 44.08253 13.15653 37070 ft 447 kts 142°
2026-04-24 13:20 44.05283 13.18314 36862 ft 447 kts 141°
2026-04-24 13:20 44.02222 13.21053 36306 ft 443 kts 141°
2026-04-24 13:21 43.99235 13.23722 35418 ft 445 kts 141°
2026-04-24 13:21 43.96178 13.26455 34393 ft 448 kts 142°
2026-04-24 13:21 43.93130 13.29178 33445 ft 452 kts 142°
2026-04-24 13:21 43.90039 13.31935 32544 ft 453 kts 142°
2026-04-24 13:22 43.86933 13.34699 31659 ft 453 kts 143°
2026-04-24 13:22 43.83758 13.37521 30733 ft 454 kts 143°
2026-04-24 13:22 43.80674 13.40257 29765 ft 455 kts 143°
2026-04-24 13:22 43.77573 13.43004 28553 ft 461 kts 143°
2026-04-24 13:23 43.74423 13.45796 27097 ft 471 kts 143°
2026-04-24 13:23 43.71192 13.48655 26079 ft 468 kts 143°
2026-04-24 13:23 43.68025 13.51444 25470 ft 458 kts 143°
2026-04-24 13:23 43.64901 13.54191 24690 ft 453 kts 143°
2026-04-24 13:24 43.61834 13.56886 23900 ft 448 kts 143°
2026-04-24 13:24 43.58783 13.59564 22829 ft 438 kts 143°
2026-04-24 13:24 43.55823 13.62161 21404 ft 432 kts 143°
2026-04-24 13:24 43.52887 13.64740 20410 ft 430 kts 143°
2026-04-24 13:25 43.49967 13.67301 19696 ft 424 kts 144°
2026-04-24 13:25 43.47053 13.69858 18924 ft 419 kts 144°
2026-04-24 13:25 43.44189 13.72412 18145 ft 415 kts 144°
2026-04-24 13:25 43.41405 13.74927 17428 ft 411 kts 143°
2026-04-24 13:26 43.38617 13.77460 16689 ft 407 kts 143°
2026-04-24 13:26 43.35890 13.79944 15927 ft 404 kts 143°
2026-04-24 13:26 43.33133 13.82417 15208 ft 399 kts 146°
2026-04-24 13:26 43.30327 13.84536 15065 ft 381 kts 150°
2026-04-24 13:27 43.27611 13.86339 14854 ft 366 kts 152°
2026-04-24 13:27 43.24977 13.88037 14640 ft 351 kts 152°
2026-04-24 13:27 43.22414 13.89718 14463 ft 336 kts 151°
2026-04-24 13:27 43.20029 13.91321 14309 ft 323 kts 150°
2026-04-24 13:28 43.17696 13.92925 14009 ft 315 kts 150°
2026-04-24 13:28 43.15437 13.94497 13529 ft 313 kts 150°
2026-04-24 13:28 43.13152 13.96091 13099 ft 311 kts 150°
2026-04-24 13:28 43.10918 13.97647 12631 ft 309 kts 150°
2026-04-24 13:29 43.08664 13.99212 12167 ft 308 kts 150°
2026-04-24 13:29 43.06444 14.00751 11713 ft 306 kts 150°
2026-04-24 13:29 43.04208 14.02298 11124 ft 306 kts 150°
2026-04-24 13:29 43.02022 14.03810 10727 ft 302 kts 150°
2026-04-24 13:30 42.99862 14.05301 10587 ft 288 kts 150°
2026-04-24 13:30 42.97825 14.06705 10483 ft 275 kts 150°
2026-04-24 13:30 42.95839 14.08075 10386 ft 274 kts 150°
2026-04-24 13:30 42.93753 14.09523 10296 ft 292 kts 150°
2026-04-24 13:31 42.91682 14.10951 10179 ft 281 kts 150°
2026-04-24 13:31 42.89673 14.12329 10018 ft 269 kts 150°
2026-04-24 13:31 42.87740 14.13657 9695 ft 265 kts 150°
2026-04-24 13:31 42.85806 14.14990 9319 ft 264 kts 150°
2026-04-24 13:32 42.83878 14.16316 8945 ft 263 kts 150°
2026-04-24 13:32 42.81966 14.17549 8591 ft 262 kts 153°
2026-04-24 13:32 42.80006 14.18712 8238 ft 260 kts 154°
2026-04-24 13:32 42.78081 14.19839 7796 ft 260 kts 154°
2026-04-24 13:33 42.76127 14.20998 7273 ft 258 kts 154°
2026-04-24 13:33 42.74224 14.22136 6737 ft 257 kts 154°
2026-04-24 13:33 42.72319 14.23278 6406 ft 248 kts 154°
2026-04-24 13:33 42.70455 14.24395 5981 ft 249 kts 154°
2026-04-24 13:34 42.68615 14.25497 5494 ft 249 kts 154°
2026-04-24 13:34 42.66775 14.26597 5036 ft 240 kts 155°
2026-04-24 13:34 42.64999 14.27659 4371 ft 241 kts 155°
2026-04-24 13:34 42.63235 14.28712 3970 ft 229 kts 155°
2026-04-24 13:35 42.61576 14.29702 3593 ft 220 kts 155°
2026-04-24 13:35 42.59971 14.30659 3414 ft 206 kts 155°
2026-04-24 13:35 42.58472 14.31552 3334 ft 192 kts 155°
2026-04-24 13:35 42.57008 14.32169 3170 ft 188 kts 178°
2026-04-24 13:36 42.55584 14.31574 3014 ft 186 kts 221°
2026-04-24 13:36 42.54558 14.30057 2665 ft 187 kts 227°
2026-04-24 13:36 42.53373 14.28822 2371 ft 186 kts 213°
2026-04-24 13:36 42.52142 14.27674 2077 ft 183 kts 220°
2026-04-24 13:37 42.51019 14.26430 1796 ft 181 kts 220°
2026-04-24 13:37 42.49851 14.25238 1516 ft 179 kts 217°
2026-04-24 13:37 42.48727 14.24084 1259 ft 167 kts 219°
2026-04-24 13:37 42.47718 14.23025 982 ft 155 kts 217°
2026-04-24 13:38 42.46791 14.22087 793 ft 152 kts 218°
2026-04-24 13:38 42.45861 14.21109 568 ft 156 kts 217°
2026-04-24 13:38 42.44896 14.20133 331 ft 153 kts 217°
2026-04-24 13:38 42.43967 14.19169 91 ft 152 kts 217°
2026-04-24 13:39 42.43134 14.18307 44 ft 100 kts 217°
2026-04-24 13:39 42.42739 14.17924 49 ft 33 kts 199°
2026-04-24 13:39 42.42603 14.17897 51 ft 12 kts 169°
2026-04-24 13:39 42.42556 14.17971 50 ft 7 kts 85°
2026-04-24 13:40 42.42598 14.18036 49 ft 9 kts 39°
2026-04-24 13:40 42.42691 14.18130 46 ft 19 kts 36°
2026-04-24 13:40 42.42826 14.18270 46 ft 20 kts 37°
2026-04-24 13:40 42.42957 14.18407 46 ft 17 kts 37°
2026-04-24 13:41 42.43016 14.18495 46 ft 9 kts 79°
2026-04-24 13:41 42.43025 14.18596 46 ft 8 kts 71°
2026-04-24 13:41 42.43073 14.18664 46 ft 8 kts 37°
2026-04-24 13:41 42.43117 14.18718 47 ft 5 kts 80°
2026-04-24 13:42 42.43103 14.18766 47 ft 3 kts 124°
2026-04-24 13:42 42.43097 14.18778 47 ft 0 kts 126°
2026-04-24 13:42 42.43094 14.18783 47 ft 0 kts 127°